AUA239 LOWW-EDDB

Flight info

Callsign AUA239
Flight time 1h 4m
Altitude 30000
Route LANUX2C/29 LANUX DCT VLM DCT BEFRE T204 NUKRO
Aircraft A20N/M-SDE2E3FGHIJ1RWXY/LB1

Departure

Time 2026-05-07 19:13
Airport Vienna International Airport (LOWW)

Arrival

Time 2026-05-07 20:18
Airport Berlin Brandenburg Airport (EDDB)
Time Latitude Longitude Altitude Speed Heading
2026-05-07 18:39 48.11864 16.56881 600 ft 0 kts 200°
2026-05-07 18:58 48.11876 16.56888 600 ft 3 kts 200°
2026-05-07 18:59 48.11895 16.56898 600 ft 3 kts 197°
2026-05-07 18:59 48.11914 16.56905 599 ft 3 kts 182°
2026-05-07 18:59 48.11932 16.56902 599 ft 3 kts 135°
2026-05-07 18:59 48.11936 16.56895 599 ft 0 kts 116°
2026-05-07 19:03 48.11936 16.56896 598 ft 0 kts 116°
2026-05-07 19:04 48.11938 16.56891 598 ft 0 kts 117°
2026-05-07 19:06 48.11937 16.56894 598 ft 2 kts 117°
2026-05-07 19:07 48.11913 16.56965 599 ft 14 kts 116°
2026-05-07 19:07 48.11863 16.57128 601 ft 16 kts 107°
2026-05-07 19:07 48.11834 16.57279 602 ft 13 kts 117°
2026-05-07 19:07 48.11766 16.57366 603 ft 13 kts 169°
2026-05-07 19:08 48.11681 16.57397 608 ft 12 kts 164°
2026-05-07 19:08 48.11596 16.57433 609 ft 13 kts 164°
2026-05-07 19:08 48.11499 16.57463 607 ft 14 kts 184°
2026-05-07 19:08 48.11416 16.57404 619 ft 12 kts 206°
2026-05-07 19:09 48.11360 16.57364 614 ft 1 kts 206°
2026-05-07 19:09 48.11357 16.57362 618 ft 0 kts 206°
2026-05-07 19:10 48.11356 16.57362 618 ft 1 kts 206°
2026-05-07 19:10 48.11329 16.57342 624 ft 6 kts 206°
2026-05-07 19:10 48.11284 16.57309 627 ft 8 kts 206°
2026-05-07 19:10 48.11222 16.57286 622 ft 10 kts 167°
2026-05-07 19:11 48.11172 16.57387 623 ft 17 kts 115°
2026-05-07 19:11 48.11123 16.57517 625 ft 14 kts 135°
2026-05-07 19:11 48.11058 16.57511 624 ft 9 kts 207°
2026-05-07 19:11 48.10999 16.57470 623 ft 10 kts 204°
2026-05-07 19:12 48.10964 16.57407 623 ft 7 kts 282°
2026-05-07 19:12 48.10977 16.57344 624 ft 5 kts 296°
2026-05-07 19:12 48.10979 16.57336 627 ft 0 kts 295°
2026-05-07 19:12 48.11044 16.57142 630 ft 56 kts 296°
2026-05-07 19:13 48.11317 16.56294 621 ft 122 kts 296°
2026-05-07 19:13 48.11777 16.54914 658 ft 168 kts 295°
2026-05-07 19:13 48.12232 16.53251 1156 ft 172 kts 276°
2026-05-07 19:13 48.12142 16.51554 2043 ft 161 kts 256°
2026-05-07 19:14 48.11894 16.49898 2659 ft 170 kts 258°
2026-05-07 19:14 48.11653 16.48074 3101 ft 188 kts 264°
2026-05-07 19:14 48.11656 16.46017 3583 ft 208 kts 278°
2026-05-07 19:14 48.11914 16.43805 4195 ft 226 kts 280°
2026-05-07 19:15 48.12185 16.41367 4753 ft 249 kts 281°
2026-05-07 19:15 48.12463 16.38764 5601 ft 256 kts 280°
2026-05-07 19:15 48.12744 16.36086 6476 ft 265 kts 280°
2026-05-07 19:15 48.13031 16.33341 7386 ft 269 kts 280°
2026-05-07 19:16 48.13321 16.30563 8363 ft 272 kts 280°
2026-05-07 19:16 48.13617 16.27747 9310 ft 276 kts 279°
2026-05-07 19:16 48.13915 16.24893 10237 ft 280 kts 279°
2026-05-07 19:16 48.14435 16.21998 10696 ft 300 kts 296°
2026-05-07 19:17 48.15742 16.19484 11001 ft 324 kts 319°
2026-05-07 19:17 48.17718 16.17733 11613 ft 336 kts 333°
2026-05-07 19:17 48.19860 16.16281 12465 ft 340 kts 334°
2026-05-07 19:17 48.22031 16.14829 13287 ft 344 kts 334°
2026-05-07 19:18 48.24219 16.13311 14067 ft 348 kts 333°
2026-05-07 19:18 48.26423 16.11728 14763 ft 354 kts 332°
2026-05-07 19:18 48.28649 16.10094 15472 ft 359 kts 331°
2026-05-07 19:18 48.30903 16.08422 16155 ft 364 kts 331°
2026-05-07 19:19 48.33185 16.06721 16863 ft 368 kts 331°
2026-05-07 19:19 48.35492 16.05001 17565 ft 372 kts 331°
2026-05-07 19:19 48.37826 16.03261 18255 ft 377 kts 331°
2026-05-07 19:19 48.40187 16.01501 18882 ft 380 kts 331°
2026-05-07 19:20 48.42570 15.99725 19501 ft 384 kts 331°
2026-05-07 19:20 48.44973 15.97929 20110 ft 387 kts 330°
2026-05-07 19:20 48.47397 15.96115 20716 ft 391 kts 330°
2026-05-07 19:20 48.49018 15.94901 21113 ft 393 kts 330°
2026-05-07 19:21 48.51477 15.93057 21701 ft 397 kts 330°
2026-05-07 19:21 48.53956 15.91196 22307 ft 400 kts 330°
2026-05-07 19:21 48.56461 15.89314 22890 ft 404 kts 330°
2026-05-07 19:21 48.58923 15.87264 23464 ft 406 kts 327°
2026-05-07 19:22 48.61391 15.85149 23939 ft 410 kts 327°
2026-05-07 19:22 48.63890 15.83016 24383 ft 414 kts 327°
2026-05-07 19:22 48.66411 15.80865 24858 ft 418 kts 327°
2026-05-07 19:22 48.68961 15.78684 25257 ft 423 kts 327°
2026-05-07 19:23 48.71532 15.76482 25718 ft 426 kts 327°
2026-05-07 19:23 48.74119 15.74261 26155 ft 429 kts 327°
2026-05-07 19:23 48.76726 15.72020 26594 ft 433 kts 327°
2026-05-07 19:23 48.79355 15.69758 27020 ft 436 kts 327°
2026-05-07 19:24 48.82000 15.67479 27415 ft 439 kts 327°
2026-05-07 19:24 48.84664 15.65182 27815 ft 442 kts 327°
2026-05-07 19:24 48.87347 15.62865 28207 ft 445 kts 327°
2026-05-07 19:24 48.90122 15.60713 28575 ft 451 kts 333°
2026-05-07 19:25 48.93019 15.58818 28850 ft 457 kts 333°
2026-05-07 19:25 48.95944 15.56885 29194 ft 459 kts 333°
2026-05-07 19:25 48.98879 15.54939 29643 ft 460 kts 332°
2026-05-07 19:25 49.01808 15.52994 29977 ft 459 kts 332°
2026-05-07 19:26 49.07624 15.49122 30014 ft 459 kts 332°
2026-05-07 19:26 49.13469 15.45222 30011 ft 459 kts 332°
2026-05-07 19:27 49.19341 15.41294 30012 ft 464 kts 332°
2026-05-07 19:27 49.25239 15.37341 30015 ft 462 kts 332°
2026-05-07 19:28 49.31132 15.33380 30013 ft 462 kts 332°
2026-05-07 19:28 49.37014 15.29414 30015 ft 457 kts 332°
2026-05-07 19:29 49.42780 15.25515 30009 ft 456 kts 332°
2026-05-07 19:29 49.48599 15.21568 30018 ft 456 kts 332°
2026-05-07 19:30 49.54405 15.17625 30011 ft 456 kts 332°
2026-05-07 19:30 49.60215 15.13666 30011 ft 456 kts 332°
2026-05-07 19:31 49.66019 15.09704 30031 ft 456 kts 332°
2026-05-07 19:31 49.72027 15.06276 30006 ft 465 kts 343°
2026-05-07 19:32 49.78345 15.04407 30004 ft 454 kts 346°
2026-05-07 19:32 49.84584 15.02568 30005 ft 458 kts 346°
2026-05-07 19:33 49.90843 15.00727 30016 ft 458 kts 346°
2026-05-07 19:33 49.97096 14.98888 30003 ft 460 kts 347°
2026-05-07 19:34 50.03386 14.97040 30004 ft 460 kts 347°
2026-05-07 19:34 50.09682 14.95184 30010 ft 460 kts 347°
2026-05-07 19:35 50.15973 14.93325 30011 ft 460 kts 347°
2026-05-07 19:35 50.22265 14.91460 30010 ft 460 kts 347°
2026-05-07 19:36 50.28556 14.89591 30010 ft 460 kts 346°
2026-05-07 19:36 50.34785 14.87735 30012 ft 448 kts 347°
2026-05-07 19:37 50.40952 14.85888 30014 ft 456 kts 347°
2026-05-07 19:37 50.47170 14.84024 30014 ft 454 kts 347°
2026-05-07 19:38 50.53378 14.82160 30020 ft 454 kts 347°
2026-05-07 19:38 50.59587 14.80290 30024 ft 454 kts 347°
2026-05-07 19:39 50.65799 14.78413 30024 ft 456 kts 348°
2026-05-07 19:39 50.72032 14.76526 30028 ft 456 kts 348°
2026-05-07 19:40 50.78260 14.74636 30037 ft 456 kts 348°
2026-05-07 19:40 50.84490 14.72740 30036 ft 456 kts 348°
2026-05-07 19:41 50.90691 14.70847 29833 ft 447 kts 348°
2026-05-07 19:41 50.93716 14.69914 29543 ft 439 kts 346°
2026-05-07 19:41 50.96630 14.68755 29262 ft 437 kts 345°
2026-05-07 19:42 50.99585 14.67564 28989 ft 438 kts 345°
2026-05-07 19:42 51.02532 14.66388 28703 ft 436 kts 345°
2026-05-07 19:42 51.05461 14.65218 28425 ft 432 kts 345°
2026-05-07 19:42 51.08374 14.64051 28155 ft 431 kts 345°
2026-05-07 19:43 51.11278 14.62883 27888 ft 430 kts 345°
2026-05-07 19:43 51.14168 14.61718 27607 ft 428 kts 345°
2026-05-07 19:43 51.17056 14.60552 27339 ft 427 kts 345°
2026-05-07 19:43 51.19932 14.59389 27087 ft 426 kts 345°
2026-05-07 19:44 51.22797 14.58230 26819 ft 424 kts 345°
2026-05-07 19:44 51.25643 14.57076 26559 ft 422 kts 345°
2026-05-07 19:44 51.28483 14.55920 26304 ft 420 kts 345°
2026-05-07 19:44 51.31310 14.54767 26027 ft 418 kts 345°
2026-05-07 19:45 51.34111 14.53623 25605 ft 414 kts 345°
2026-05-07 19:45 51.36895 14.52493 25072 ft 411 kts 347°
2026-05-07 19:45 51.39702 14.51740 24534 ft 406 kts 354°
2026-05-07 19:45 51.42503 14.51335 23996 ft 403 kts 355°
2026-05-07 19:46 51.45275 14.50913 23483 ft 397 kts 354°
2026-05-07 19:46 51.48013 14.50488 22843 ft 394 kts 354°
2026-05-07 19:46 51.50732 14.50064 22226 ft 391 kts 354°
2026-05-07 19:46 51.53427 14.49646 21593 ft 388 kts 354°
2026-05-07 19:47 51.56110 14.49231 20960 ft 386 kts 354°
2026-05-07 19:47 51.58768 14.48822 20378 ft 383 kts 354°
2026-05-07 19:47 51.61411 14.48415 19786 ft 380 kts 354°
2026-05-07 19:47 51.64045 14.48009 19185 ft 379 kts 354°
2026-05-07 19:48 51.66662 14.47604 18620 ft 377 kts 353°
2026-05-07 19:48 51.69262 14.47202 18034 ft 374 kts 353°
2026-05-07 19:48 51.71844 14.46801 17452 ft 371 kts 354°
2026-05-07 19:48 51.74403 14.46403 16880 ft 368 kts 354°
2026-05-07 19:49 51.76945 14.46007 16317 ft 365 kts 354°
2026-05-07 19:49 51.79465 14.45615 15763 ft 363 kts 354°
2026-05-07 19:49 51.81966 14.45225 15223 ft 360 kts 354°
2026-05-07 19:49 51.84455 14.44836 14697 ft 358 kts 354°
2026-05-07 19:50 51.86925 14.44450 14161 ft 355 kts 354°
2026-05-07 19:50 51.89371 14.44069 13715 ft 351 kts 354°
2026-05-07 19:50 51.91790 14.43691 13160 ft 348 kts 354°
2026-05-07 19:50 51.94192 14.43314 12618 ft 345 kts 354°
2026-05-07 19:51 51.96543 14.42945 12105 ft 343 kts 354°
2026-05-07 19:51 51.98902 14.42574 11588 ft 340 kts 354°
2026-05-07 19:51 52.01217 14.41970 11148 ft 335 kts 341°
2026-05-07 19:51 52.03245 14.40149 10730 ft 336 kts 319°
2026-05-07 19:52 52.04692 14.37225 10328 ft 332 kts 296°
2026-05-07 19:52 52.05318 14.33700 10100 ft 320 kts 276°
2026-05-07 19:52 52.05544 14.30185 9973 ft 306 kts 276°
2026-05-07 19:52 52.05761 14.26814 9845 ft 293 kts 276°
2026-05-07 19:53 52.05974 14.23554 9502 ft 288 kts 276°
2026-05-07 19:53 52.06183 14.20370 9329 ft 279 kts 276°
2026-05-07 19:53 52.06391 14.17202 9201 ft 284 kts 276°
2026-05-07 19:53 52.06600 14.14016 9062 ft 283 kts 276°
2026-05-07 19:54 52.06807 14.10841 8937 ft 283 kts 276°
2026-05-07 19:54 52.07014 14.07667 8791 ft 282 kts 276°
2026-05-07 19:54 52.07219 14.04497 8679 ft 282 kts 276°
2026-05-07 19:54 52.07424 14.01328 8551 ft 282 kts 276°
2026-05-07 19:55 52.07627 13.98160 8421 ft 282 kts 276°
2026-05-07 19:55 52.07830 13.94989 8292 ft 282 kts 276°
2026-05-07 19:55 52.08032 13.91823 8167 ft 281 kts 276°
2026-05-07 19:55 52.08233 13.88666 8089 ft 281 kts 276°
2026-05-07 19:56 52.08432 13.85495 8089 ft 283 kts 276°
2026-05-07 19:56 52.08633 13.82295 8090 ft 285 kts 276°
2026-05-07 19:56 52.08834 13.79089 8091 ft 284 kts 276°
2026-05-07 19:56 52.09033 13.75891 8091 ft 285 kts 276°
2026-05-07 19:57 52.09232 13.72691 8092 ft 285 kts 276°
2026-05-07 19:57 52.09427 13.69528 8092 ft 285 kts 276°
2026-05-07 19:57 52.09624 13.66326 8096 ft 285 kts 276°
2026-05-07 19:57 52.09821 13.63124 8097 ft 285 kts 276°
2026-05-07 19:58 52.10035 13.59924 8012 ft 285 kts 277°
2026-05-07 19:58 52.10283 13.56731 7884 ft 284 kts 278°
2026-05-07 19:58 52.10536 13.53551 7759 ft 283 kts 278°
2026-05-07 19:58 52.10787 13.50368 7629 ft 283 kts 278°
2026-05-07 19:59 52.11031 13.47194 7512 ft 283 kts 277°
2026-05-07 19:59 52.11273 13.44021 7381 ft 283 kts 277°
2026-05-07 19:59 52.11511 13.40856 7286 ft 279 kts 277°
2026-05-07 19:59 52.11741 13.37778 7205 ft 269 kts 277°
2026-05-07 20:00 52.12143 13.34887 7085 ft 257 kts 294°
2026-05-07 20:00 52.13030 13.32431 6855 ft 248 kts 310°
2026-05-07 20:00 52.14074 13.30232 6729 ft 246 kts 309°
2026-05-07 20:00 52.15112 13.28007 6609 ft 247 kts 309°
2026-05-07 20:01 52.16141 13.25781 6482 ft 245 kts 309°
2026-05-07 20:01 52.17164 13.23561 6352 ft 245 kts 309°
2026-05-07 20:01 52.18173 13.21334 6213 ft 244 kts 303°
2026-05-07 20:01 52.18691 13.18717 6112 ft 247 kts 272°
2026-05-07 20:02 52.18362 13.15982 6098 ft 249 kts 250°
2026-05-07 20:02 52.17718 13.13361 6093 ft 249 kts 247°
2026-05-07 20:02 52.17032 13.10773 6093 ft 249 kts 246°
2026-05-07 20:02 52.16354 13.08180 6087 ft 249 kts 247°
2026-05-07 20:03 52.15694 13.05573 6085 ft 249 kts 248°
2026-05-07 20:03 52.15048 13.02962 6083 ft 249 kts 248°
2026-05-07 20:03 52.14408 13.00343 6084 ft 249 kts 248°
2026-05-07 20:03 52.13771 12.97723 6080 ft 249 kts 249°
2026-05-07 20:04 52.13135 12.95105 6083 ft 249 kts 249°
2026-05-07 20:04 52.12497 12.92488 6083 ft 249 kts 248°
2026-05-07 20:04 52.11859 12.89869 6083 ft 249 kts 248°
2026-05-07 20:04 52.11228 12.87287 6084 ft 249 kts 248°
2026-05-07 20:05 52.10590 12.84683 6085 ft 247 kts 248°
2026-05-07 20:05 52.09955 12.82088 6086 ft 247 kts 248°
2026-05-07 20:05 52.09319 12.79493 6086 ft 247 kts 248°
2026-05-07 20:05 52.08683 12.76902 6086 ft 247 kts 248°
2026-05-07 20:06 52.08045 12.74308 6087 ft 247 kts 248°
2026-05-07 20:06 52.07647 12.71621 6075 ft 246 kts 272°
2026-05-07 20:06 52.08093 12.68974 6070 ft 244 kts 303°
2026-05-07 20:06 52.09286 12.67101 6085 ft 239 kts 334°
2026-05-07 20:07 52.10817 12.66062 6091 ft 238 kts 343°
2026-05-07 20:07 52.12405 12.65356 6085 ft 235 kts 359°
2026-05-07 20:07 52.13992 12.65801 6091 ft 234 kts 27°
2026-05-07 20:07 52.15241 12.67427 5944 ft 231 kts 56°
2026-05-07 20:08 52.15914 12.69781 5798 ft 230 kts 69°
2026-05-07 20:08 52.16491 12.72206 5648 ft 229 kts 69°
2026-05-07 20:08 52.17075 12.74621 5506 ft 229 kts 68°
2026-05-07 20:08 52.17664 12.77027 5358 ft 228 kts 68°
2026-05-07 20:09 52.18253 12.79427 5209 ft 228 kts 68°
2026-05-07 20:09 52.18842 12.81822 5073 ft 228 kts 68°
2026-05-07 20:09 52.19439 12.84209 4926 ft 227 kts 66°
2026-05-07 20:10 52.20718 12.88890 4570 ft 225 kts 68°
2026-05-07 20:10 52.21298 12.91237 4385 ft 224 kts 69°
2026-05-07 20:10 52.21866 12.93616 4240 ft 223 kts 68°
2026-05-07 20:10 52.22237 12.95168 4149 ft 221 kts 68°
2026-05-07 20:11 52.22797 12.97512 4007 ft 222 kts 68°
2026-05-07 20:11 52.23355 12.99850 3868 ft 220 kts 68°
2026-05-07 20:11 52.23912 13.02181 3726 ft 221 kts 68°
2026-05-07 20:11 52.24467 13.04508 3590 ft 220 kts 68°
2026-05-07 20:12 52.25020 13.06827 3456 ft 219 kts 68°
2026-05-07 20:12 52.25571 13.09135 3310 ft 218 kts 68°
2026-05-07 20:12 52.26121 13.11443 3167 ft 218 kts 68°
2026-05-07 20:12 52.26669 13.13741 3031 ft 217 kts 68°
2026-05-07 20:13 52.27215 13.16032 2997 ft 216 kts 68°
2026-05-07 20:13 52.27764 13.18338 2998 ft 219 kts 69°
2026-05-07 20:13 52.28314 13.20649 2997 ft 218 kts 68°
2026-05-07 20:13 52.28854 13.22916 2995 ft 208 kts 69°
2026-05-07 20:14 52.29357 13.25029 2992 ft 191 kts 69°
2026-05-07 20:14 52.29818 13.26966 2872 ft 178 kts 69°
2026-05-07 20:14 52.30260 13.28822 2586 ft 173 kts 68°
2026-05-07 20:14 52.30690 13.30631 2329 ft 167 kts 68°
2026-05-07 20:15 52.31095 13.32335 2096 ft 155 kts 68°
2026-05-07 20:15 52.31462 13.33879 1901 ft 137 kts 68°
2026-05-07 20:15 52.31790 13.35256 1711 ft 128 kts 68°
2026-05-07 20:15 52.32115 13.36624 1519 ft 129 kts 68°
2026-05-07 20:16 52.32440 13.37988 1351 ft 129 kts 68°
2026-05-07 20:16 52.32758 13.39327 1173 ft 128 kts 68°
2026-05-07 20:16 52.33083 13.40693 997 ft 130 kts 67°
2026-05-07 20:16 52.33411 13.42080 774 ft 134 kts 68°
2026-05-07 20:17 52.33728 13.43498 615 ft 136 kts 69°
2026-05-07 20:17 52.34071 13.44945 448 ft 136 kts 68°
2026-05-07 20:17 52.34427 13.46388 274 ft 139 kts 68°
2026-05-07 20:17 52.34761 13.47836 154 ft 130 kts 69°
2026-05-07 20:18 52.35043 13.48917 153 ft 74 kts 69°
2026-05-07 20:18 52.35196 13.49584 155 ft 53 kts 69°
2026-05-07 20:18 52.35333 13.49934 153 ft 18 kts 38°
2026-05-07 20:18 52.35431 13.50067 156 ft 19 kts 42°
2026-05-07 20:19 52.35526 13.50192 157 ft 18 kts 38°
2026-05-07 20:19 52.35606 13.50329 158 ft 17 kts 69°
2026-05-07 20:19 52.35649 13.50525 158 ft 20 kts 69°
2026-05-07 20:19 52.35704 13.50736 158 ft 20 kts 69°
2026-05-07 20:20 52.35734 13.50850 158 ft 1 kts 40°
2026-05-07 20:20 52.35817 13.50797 158 ft 20 kts 339°
2026-05-07 20:20 52.35951 13.50714 158 ft 22 kts 339°
2026-05-07 20:20 52.36092 13.50627 158 ft 18 kts 338°
2026-05-07 20:21 52.36205 13.50554 158 ft 16 kts 338°
2026-05-07 20:21 52.36320 13.50481 158 ft 19 kts 339°
2026-05-07 20:21 52.36393 13.50435 158 ft 0 kts 339°
2026-05-07 20:21 52.36408 13.50425 158 ft 4 kts 339°
2026-05-07 20:22 52.36459 13.50395 158 ft 11 kts 339°
2026-05-07 20:22 52.36538 13.50396 158 ft 13 kts 36°
2026-05-07 20:22 52.36550 13.50477 158 ft 0 kts 82°
2026-05-07 20:22 52.36553 13.50489 158 ft 0 kts 75°